Regional Weather Roundup
Issued by NWS

Home | Current Version | Previous Version | Graphics & Text | Print | Product List | Glossary On
Versions: 1 2 3 4 5 6 7 8 9 10 11 12 13 14 15 16 17 18 19 20 21 22 23 24 25 26 27
000
ASUS45 KCYS 221410
RWRWY

WYOMING REGIONAL WEATHER ROUNDUP
NATIONAL WEATHER SERVICE CHEYENNE WY
700 AM MST THU FEB 22 2018

NOTE:  "FAIR" INDICATES FEW OR NO CLOUDS BELOW 12,000 FEET
WITH NO SIGNIFICANT WEATHER AND/OR OBSTRUCTIONS TO VISIBILITY.

WYZ001-221500-
YELLOWSTONE NATIONAL PARK

CITY           SKY/WX    TMP DP  RH WIND       PRES   REMARKS
LK YELLOWSTONE   N/A    -14 -19  79 W3        29.89S
W YELLOWSTONE  NOT AVBL

$$
WYZ002>013-054>058-071-098>099-221500-
NORTHERN WYOMING

CITY           SKY/WX    TMP DP  RH WIND       PRES   REMARKS
JACKSON        CLOUDY    -2  -8  76 N5        29.97S WCI -12
CODY           FAIR       9  -2  61 VRB7      29.99R WCI  -2
GREYBULL       FAIR     -18 -21  87 CALM      30.10R
WORLAND        FAIR     -17 -21  82 NW3       30.06S
SHERIDAN       FAIR     -11 -16  78 CALM      30.05S
BUFFALO        FAIR      13  -6  42 W10       30.00S WCI   0
GILLETTE       FAIR      -7 -13  75 NW5       30.03R WCI -18
HULETT         FAIR      10   3  72 MISG      30.06R
NEWCASTLE      FAIR       1  -4  78 CALM      30.09S

$$
WYZ014>020-022>026-101>103-221500-
CENTRAL WYOMING

CITY           SKY/WX    TMP DP  RH WIND       PRES   REMARKS
BIG PINEY      FAIR     -10 -16  74 CALM      29.95S
PINEDALE       CLOUDY    -4  -8  84 W5        29.95S WCI -15
DUBOIS           N/A    N/A N/A N/A MISG        N/A
LANDER         FAIR      -7 -10  87 NW5       29.99S WCI -18
RIVERTON       FAIR      -8 -14  74 NW5       30.01R WCI -19
CASPER         FAIR      -4 -10  75 NW7       29.99F WCI -18
DOUGLAS        MOCLDY     0  -4  83 N7        30.04R WCI -13

$$
WYZ021-027>030-104>119-221500-
SOUTHERN WYOMING

CITY           SKY/WX    TMP DP  RH WIND       PRES   REMARKS
EVANSTON       CLOUDY     1  -4  79 E12       29.89S WCI -16
ROCK SPRINGS   CLOUDY     1  -4  79 CALM      29.94S
DIXON          CLOUDY     3  -2  81 SE5       29.98R WCI  -7
RAWLINS        CLOUDY    -2  -6  83 CALM      29.94S
SARATOGA       CLOUDY    -6  -9  84 MISG      29.93S
LARAMIE        FAIR      -1  -4  87 SE3       29.89F
CHEYENNE       FAIR       8   4  83 W3        29.94R
TORRINGTON     MOCLDY     9   7  92 SE5       30.06F WCI   1
PINE BLUFFS    CLOUDY     3   0  85 CALM      30.02F

$$




USA.gov is the U.S. government's official web portal to all federal, state and local government web resources and services.